TimeCDT,TemperatureF,Dew PointF,Humidity,Sea Level PressureIn,VisibilityMPH,Wind Direction,Wind SpeedMPH,Gust SpeedMPH,PrecipitationIn,Events,Conditions,WindDirDegrees,DateUTC
12:15 AM,62.6,60.8,94,30.19,4.0,Calm,Calm,-,N/A,,Clear,0,2012-10-05 05:15:00
12:35 AM,60.8,60.8,100,30.19,4.0,Calm,Calm,-,N/A,,Clear,0,2012-10-05 05:35:00
12:55 AM,60.8,60.8,100,30.19,5.0,Calm,Calm,-,N/A,,Clear,0,2012-10-05 05:55:00
1:15 AM,60.8,60.8,100,30.19,4.0,Calm,Calm,-,N/A,,Clear,0,2012-10-05 06:15:00
1:35 AM,60.8,60.8,100,30.19,5.0,Calm,Calm,-,N/A,,Clear,0,2012-10-05 06:35:00
1:55 AM,60.8,60.8,100,30.19,5.0,Calm,Calm,-,N/A,,Clear,0,2012-10-05 06:55:00
2:15 AM,60.8,60.8,100,30.18,4.0,Calm,Calm,-,N/A,,Clear,0,2012-10-05 07:15:00
2:35 AM,60.8,59.0,94,30.18,4.0,Calm,Calm,-,N/A,,Clear,0,2012-10-05 07:35:00
2:55 AM,60.8,60.8,100,30.18,5.0,Calm,Calm,-,N/A,,Clear,0,2012-10-05 07:55:00
3:15 AM,60.8,60.8,100,30.18,5.0,Calm,Calm,-,N/A,,Clear,0,2012-10-05 08:15:00
3:35 AM,60.8,60.8,100,30.17,3.0,Calm,Calm,-,N/A,,Clear,0,2012-10-05 08:35:00
3:55 AM,60.8,59.0,94,30.17,4.0,Calm,Calm,-,N/A,,Clear,0,2012-10-05 08:55:00
4:15 AM,59.0,59.0,100,30.17,3.0,Calm,Calm,-,N/A,,Clear,0,2012-10-05 09:15:00
4:35 AM,59.0,59.0,100,30.17,4.0,Calm,Calm,-,N/A,,Clear,0,2012-10-05 09:35:00
4:55 AM,59.0,57.2,94,30.17,3.0,Calm,Calm,-,N/A,,Clear,0,2012-10-05 09:55:00
5:15 AM,57.2,57.2,100,30.17,3.0,Calm,Calm,-,N/A,,Clear,0,2012-10-05 10:15:00
5:35 AM,57.2,57.2,100,30.17,3.0,Calm,Calm,-,N/A,,Clear,0,2012-10-05 10:35:00
5:55 AM,57.2,57.2,100,30.18,4.0,Calm,Calm,-,N/A,,Clear,0,2012-10-05 10:55:00
6:15 AM,57.2,57.2,100,30.18,4.0,Calm,Calm,-,N/A,,Clear,0,2012-10-05 11:15:00
6:35 AM,57.2,57.2,100,30.18,5.0,Calm,Calm,-,N/A,,Clear,0,2012-10-05 11:35:00
6:55 AM,57.2,57.2,100,30.18,1.8,Calm,Calm,-,N/A,,Clear,0,2012-10-05 11:55:00
7:15 AM,57.2,57.2,100,30.18,3.0,Calm,Calm,-,N/A,,Clear,0,2012-10-05 12:15:00
7:35 AM,57.2,57.2,100,30.18,3.0,Calm,Calm,-,N/A,,Clear,0,2012-10-05 12:35:00
7:55 AM,60.8,60.8,100,30.18,3.0,Calm,Calm,-,N/A,,Clear,0,2012-10-05 12:55:00
8:15 AM,62.6,62.6,100,30.18,5.0,Calm,Calm,-,N/A,,Clear,0,2012-10-05 13:15:00
8:35 AM,66.2,64.4,94,30.18,8.0,Calm,Calm,-,N/A,,Clear,0,2012-10-05 13:35:00
8:55 AM,69.8,64.4,83,30.18,9.0,Calm,Calm,-,N/A,,Clear,0,2012-10-05 13:55:00
9:15 AM,71.6,64.4,78,30.18,9.0,Calm,Calm,-,N/A,,Clear,0,2012-10-05 14:15:00
9:35 AM,73.4,64.4,73,30.19,10.0,Calm,Calm,-,N/A,,Clear,0,2012-10-05 14:35:00
9:55 AM,75.2,64.4,69,30.19,9.0,Calm,Calm,-,N/A,,Clear,0,2012-10-05 14:55:00
10:15 AM,77.0,64.4,65,30.18,9.0,Calm,Calm,-,N/A,,Clear,0,2012-10-05 15:15:00
10:35 AM,78.8,62.6,57,30.18,8.0,Calm,Calm,-,N/A,,Clear,0,2012-10-05 15:35:00
10:55 AM,78.8,62.6,57,30.17,9.0,Calm,Calm,-,N/A,,Clear,0,2012-10-05 15:55:00
11:35 AM,80.6,60.8,51,30.16,10.0,Calm,Calm,-,N/A,,Clear,0,2012-10-05 16:35:00
11:55 AM,80.6,59.0,48,30.15,9.0,Calm,Calm,-,N/A,,Clear,0,2012-10-05 16:55:00
12:15 PM,80.6,60.8,51,30.14,10.0,ENE,3.5,-,N/A,,Clear,60,2012-10-05 17:15:00
12:35 PM,80.6,59.0,48,30.13,10.0,Calm,Calm,-,N/A,,Clear,0,2012-10-05 17:35:00
12:55 PM,80.6,60.8,51,30.13,8.0,SE,3.5,-,N/A,,Clear,130,2012-10-05 17:55:00
1:35 PM,80.6,60.8,51,30.11,9.0,NNE,4.6,-,N/A,,Clear,20,2012-10-05 18:35:00
1:55 PM,82.4,60.8,48,30.10,10.0,Calm,Calm,-,N/A,,Clear,0,2012-10-05 18:55:00
2:15 PM,82.4,60.8,48,30.09,9.0,Calm,Calm,-,N/A,,Clear,0,2012-10-05 19:15:00
2:35 PM,82.4,60.8,48,30.09,10.0,South,3.5,-,N/A,,Clear,170,2012-10-05 19:35:00
2:55 PM,82.4,60.8,48,30.08,10.0,WSW,4.6,-,N/A,,Clear,240,2012-10-05 19:55:00
3:15 PM,82.4,60.8,48,30.07,9.0,South,4.6,-,N/A,,Clear,170,2012-10-05 20:15:00
3:35 PM,82.4,57.2,42,30.07,10.0,Calm,Calm,-,N/A,,Clear,0,2012-10-05 20:35:00
3:55 PM,82.4,60.8,48,30.06,10.0,Calm,Calm,-,N/A,,Clear,0,2012-10-05 20:55:00
4:15 PM,82.4,59.0,45,30.05,10.0,Calm,Calm,-,N/A,,Clear,0,2012-10-05 21:15:00
4:35 PM,82.4,60.8,48,30.04,10.0,Calm,Calm,-,N/A,,Clear,0,2012-10-05 21:35:00
4:55 PM,82.4,62.6,51,30.04,9.0,Calm,Calm,-,N/A,,Clear,0,2012-10-05 21:55:00
5:15 PM,82.4,60.8,48,30.04,10.0,Calm,Calm,-,N/A,,Clear,0,2012-10-05 22:15:00
5:35 PM,82.4,64.4,54,30.03,10.0,Calm,Calm,-,N/A,,Clear,0,2012-10-05 22:35:00
5:55 PM,80.6,64.4,58,30.03,10.0,Calm,Calm,-,N/A,,Clear,0,2012-10-05 22:55:00
6:15 PM,75.2,66.2,73,30.03,10.0,Calm,Calm,-,N/A,,Clear,0,2012-10-05 23:15:00
6:35 PM,73.4,68.0,83,30.04,10.0,Calm,Calm,-,N/A,,Clear,0,2012-10-05 23:35:00
6:55 PM,71.6,68.0,88,30.04,9.0,Calm,Calm,-,N/A,,Clear,0,2012-10-05 23:55:00
7:15 PM,69.8,66.2,88,30.04,9.0,Calm,Calm,-,N/A,,Clear,0,2012-10-06 00:15:00
7:35 PM,69.8,66.2,88,30.04,10.0,Calm,Calm,-,N/A,,Clear,0,2012-10-06 00:35:00
7:55 PM,66.2,66.2,100,30.04,9.0,Calm,Calm,-,N/A,,Clear,0,2012-10-06 00:55:00
8:15 PM,66.2,66.2,100,30.04,8.0,Calm,Calm,-,N/A,,Clear,0,2012-10-06 01:15:00
8:35 PM,66.2,66.2,100,30.04,7.0,Calm,Calm,-,N/A,,Clear,0,2012-10-06 01:35:00
8:55 PM,66.2,64.4,94,30.04,6.0,Calm,Calm,-,N/A,,Clear,0,2012-10-06 01:55:00
9:15 PM,64.4,64.4,100,30.05,5.0,Calm,Calm,-,N/A,,Clear,0,2012-10-06 02:15:00
9:35 PM,64.4,64.4,100,30.05,5.0,Calm,Calm,-,N/A,,Clear,0,2012-10-06 02:35:00
9:55 PM,64.4,64.4,100,30.05,5.0,Calm,Calm,-,N/A,,Clear,0,2012-10-06 02:55:00
10:35 PM,64.4,62.6,94,30.06,5.0,Calm,Calm,-,N/A,,Clear,0,2012-10-06 03:35:00
10:55 PM,64.4,62.6,94,30.06,6.0,Calm,Calm,-,N/A,,Clear,0,2012-10-06 03:55:00
11:15 PM,64.4,62.6,94,30.06,6.0,Calm,Calm,-,N/A,,Clear,0,2012-10-06 04:15:00
11:35 PM,62.6,62.6,100,30.06,5.0,Calm,Calm,-,N/A,,Clear,0,2012-10-06 04:35:00
11:55 PM,62.6,62.6,100,30.05,5.0,Calm,Calm,-,N/A,,Clear,0,2012-10-06 04:55:00